,,,PA_Meas_PMT16A,,PR_Meas_QMR101_102,,RH_Meas_QMH101,,SR_Meas_QMS101,,TA_Meas_QMH101,,GenWind,,GenWind,
date,time,status,PA,status,PR,status,RH,status,SR,status,TA,status,DirAvg,status,SpdAvg,
2008-11-12, 00:00:04,VALID,1002.5,VALID,0,VALID,93.6445,VALID,0.100563,VALID,24.422,VALID,341,VALID,0,
2008-11-12, 00:01:04,VALID,1002.48,VALID,0,VALID,93.5682,VALID,0,VALID,24.4433,VALID,291,VALID,0,
2008-11-12, 00:02:04,VALID,1002.48,VALID,0,VALID,93.4385,VALID,0.100563,VALID,24.4433,VALID,291,VALID,0,
2008-11-12, 00:03:04,VALID,1002.47,VALID,0,VALID,93.3012,VALID,0,VALID,24.422,VALID,328,VALID,0.253516,
2008-11-12, 00:04:04,VALID,1002.43,VALID,0,VALID,93.1486,VALID,0,VALID,24.4025,VALID,333,VALID,0.5125,
2008-11-12, 00:05:04,VALID,1002.43,VALID,0,VALID,93.1868,VALID,0,VALID,24.4043,VALID,334,VALID,0.460938,
2008-11-12, 00:06:04,VALID,1002.4,VALID,0,VALID,93.1639,VALID,0,VALID,24.3849,VALID,342,VALID,0.591406,
2008-11-12, 00:07:04,VALID,1002.41,VALID,0,VALID,93.2097,VALID,0,VALID,24.3459,VALID,343,VALID,0.444531,
2008-11-12, 00:08:04,VALID,1002.38,VALID,0,VALID,93.2097,VALID,0.100563,VALID,24.3265,VALID,344,VALID,0.610937,
2008-11-12, 00:09:04,VALID,1002.35,VALID,0,VALID,93.2859,VALID,0.100563,VALID,24.307,VALID,346,VALID,0.505469,
2008-11-12, 00:10:04,VALID,1002.31,VALID,0,VALID,93.3622,VALID,0,VALID,24.2681,VALID,354,VALID,0.350781,
2008-11-12, 00:11:04,VALID,1002.3,VALID,0,VALID,93.4614,VALID,0.100563,VALID,24.2662,VALID,354,VALID,0.00820312,
2008-11-12, 00:12:04,VALID,1002.29,VALID,0,VALID,93.553,VALID,0.100563,VALID,24.2875,VALID,354,VALID,0.226563,
2008-11-12, 00:13:04,VALID,1002.29,VALID,0,VALID,93.5224,VALID,0.100563,VALID,24.2875,VALID,354,VALID,0,
2008-11-12, 00:14:04,VALID,1002.27,VALID,0,VALID,93.5606,VALID,0,VALID,24.307,VALID,354,VALID,0.516797,
2008-11-12, 00:15:04,VALID,1002.25,VALID,0,VALID,93.5911,VALID,0.100563,VALID,24.3052,VALID,354,VALID,0.232031,
2008-11-12, 00:16:04,VALID,1002.23,VALID,0,VALID,93.4996,VALID,0,VALID,24.3265,VALID,354,VALID,0.517187,
2008-11-12, 00:17:04,VALID,1002.23,VALID,0,VALID,93.4462,VALID,0.100563,VALID,24.3265,VALID,354,VALID,0.476953,
2008-11-12, 00:18:04,VALID,1002.24,VALID,0,VALID,93.408,VALID,0,VALID,24.2662,VALID,354,VALID,0.613672,
2008-11-12, 00:19:04,VALID,1002.23,VALID,0,VALID,93.4843,VALID,0.100563,VALID,24.2662,VALID,354,VALID,0.524219,
2008-11-12, 00:20:04,VALID,1002.19,VALID,0,VALID,93.6064,VALID,0,VALID,24.2468,VALID,354,VALID,0.408984,
2008-11-12, 00:21:04,VALID,1002.18,VALID,0,VALID,93.675,VALID,0.100563,VALID,24.2875,VALID,354,VALID,0.428906,
2008-11-12, 00:22:04,VALID,1002.19,VALID,0,VALID,93.6064,VALID,0.100563,VALID,24.2681,VALID,354,VALID,0.445703,
2008-11-12, 00:23:04,VALID,1002.17,VALID,0,VALID,93.7589,VALID,0.100563,VALID,24.2273,VALID,354,VALID,0.436328,
2008-11-12, 00:24:04,VALID,1002.18,VALID,0,VALID,93.7971,VALID,0,VALID,24.2468,VALID,354,VALID,0.609766,
2008-11-12, 00:25:04,VALID,1002.17,VALID,0,VALID,93.7971,VALID,0.100563,VALID,24.2875,VALID,354,VALID,0.298438,
2008-11-12, 00:26:04,VALID,1002.14,VALID,0,VALID,93.7666,VALID,0,VALID,24.2875,VALID,354,VALID,0,
2008-11-12, 00:27:04,VALID,1002.11,VALID,0,VALID,93.7437,VALID,0.100563,VALID,24.2857,VALID,354,VALID,0.13125,
2008-11-12, 00:28:04,VALID,1002.13,VALID,0,VALID,93.7208,VALID,0.100563,VALID,24.3052,VALID,325,VALID,0.0375,
2008-11-12, 00:29:04,VALID,1002.12,VALID,0,VALID,93.675,VALID,0,VALID,24.3052,VALID,325,VALID,0,
2008-11-12, 00:30:04,VALID,1002.08,VALID,0,VALID,93.6979,VALID,0,VALID,24.3265,VALID,325,VALID,0.236719,
2008-11-12, 00:31:04,VALID,1002.09,VALID,0,VALID,93.6445,VALID,0.100563,VALID,24.3246,VALID,325,VALID,0.116797,
2008-11-12, 00:32:04,VALID,1002.08,VALID,0,VALID,93.6369,VALID,0,VALID,24.3459,VALID,325,VALID,0.310937,
2008-11-12, 00:33:04,VALID,1002.08,VALID,0,VALID,93.5453,VALID,0,VALID,24.3459,VALID,326,VALID,0.342187,
2008-11-12, 00:34:04,VALID,1002.06,VALID,0,VALID,93.469,VALID,0,VALID,24.3459,VALID,326,VALID,0.367969,
2008-11-12, 00:35:04,VALID,1002.07,VALID,0,VALID,93.4385,VALID,0,VALID,24.3265,VALID,326,VALID,0.315625,
2008-11-12, 00:36:04,VALID,1002.04,VALID,0,VALID,93.4919,VALID,0.100563,VALID,24.2857,VALID,325,VALID,0.186328,
2008-11-12, 00:37:04,VALID,1002.05,VALID,0,VALID,93.553,VALID,0.100563,VALID,24.3265,VALID,325,VALID,0.0621094,
2008-11-12, 00:38:04,VALID,1002.04,VALID,0,VALID,93.5682,VALID,0,VALID,24.307,VALID,325,VALID,0.26875,
2008-11-12, 00:39:04,VALID,1002.05,VALID,0,VALID,93.553,VALID,0,VALID,24.307,VALID,325,VALID,0.13125,
2008-11-12, 00:40:04,VALID,1002.03,VALID,0,VALID,93.5301,VALID,0.100563,VALID,24.2857,VALID,325,VALID,0.0566406,
2008-11-12, 00:41:04,VALID,1002.02,VALID,0,VALID,93.5682,VALID,0.100563,VALID,24.2857,VALID,325,VALID,0.126953,
2008-11-12, 00:42:04,VALID,1002.02,VALID,0,VALID,93.5835,VALID,0,VALID,24.3265,VALID,335,VALID,0.413281,
2008-11-12, 00:43:04,VALID,1002.03,VALID,0,VALID,93.4767,VALID,0,VALID,24.307,VALID,336,VALID,0.402344,
2008-11-12, 00:44:04,VALID,1002.01,VALID,0,VALID,93.4233,VALID,0.100563,VALID,24.2662,VALID,336,VALID,0.386328,
2008-11-12, 00:45:04,VALID,1002.03,VALID,0,VALID,93.5301,VALID,0,VALID,24.2468,VALID,336,VALID,0.172656,
2008-11-12, 00:46:04,VALID,1002.04,VALID,0,VALID,93.6064,VALID,0,VALID,24.2468,VALID,338,VALID,0.316797,
2008-11-12, 00:47:04,VALID,1002.05,VALID,0,VALID,93.5377,VALID,0,VALID,24.2468,VALID,338,VALID,0,
2008-11-12, 00:48:04,VALID,1002.02,VALID,0,VALID,93.5377,VALID,0,VALID,24.2681,VALID,341,VALID,0.0457031,
2008-11-12, 00:49:04,VALID,1002.03,VALID,0,VALID,93.553,VALID,0,VALID,24.2486,VALID,344,VALID,0.281641,
2008-11-12, 00:50:04,VALID,1002.04,VALID,0,VALID,93.6598,VALID,0,VALID,24.2681,VALID,344,VALID,0,
2008-11-12, 00:51:04,VALID,1002.01,VALID,0,VALID,93.6826,VALID,0,VALID,24.2875,VALID,344,VALID,0.0925781,
2008-11-12, 00:52:04,VALID,1002,VALID,0,VALID,93.6445,VALID,0,VALID,24.2662,VALID,344,VALID,0.232812,
2008-11-12, 00:53:04,VALID,1002.01,VALID,0,VALID,93.6521,VALID,0.100563,VALID,24.2857,VALID,344,VALID,0.283203,
2008-11-12, 00:54:04,VALID,1002.01,VALID,0,VALID,93.5758,VALID,0,VALID,24.3283,VALID,344,VALID,0.45,
2008-11-12, 00:55:04,VALID,1002.02,VALID,0,VALID,93.4767,VALID,0,VALID,24.3088,VALID,344,VALID,0.587891,
2008-11-12, 00:56:04,VALID,1002.03,VALID,0,VALID,93.4538,VALID,0,VALID,24.2875,VALID,343,VALID,0.488281,
2008-11-12, 00:57:04,VALID,1002.02,VALID,0,VALID,93.4614,VALID,0,VALID,24.2894,VALID,343,VALID,0.340625,
2008-11-12, 00:58:04,VALID,1002.02,VALID,0,VALID,93.4843,VALID,0,VALID,24.2875,VALID,343,VALID,0.429688,
2008-11-12, 00:59:04,VALID,1002.01,VALID,0,VALID,93.4919,VALID,0,VALID,24.2894,VALID,343,VALID,0.462891,
2008-11-12, 01:00:04,VALID,1001.98,VALID,0,VALID,93.5072,VALID,0,VALID,24.2486,VALID,345,VALID,0.359766,
2008-11-12, 01:01:04,VALID,1001.96,VALID,0,VALID,93.5682,VALID,0,VALID,24.2681,VALID,345,VALID,0.285156,
2008-11-12, 01:02:04,VALID,1001.97,VALID,0,VALID,93.5835,VALID,0,VALID,24.2681,VALID,345,VALID,0.241406,
2008-11-12, 01:03:04,VALID,1001.91,VALID,0,VALID,93.5377,VALID,0,VALID,24.2681,VALID,345,VALID,0.211719,
2008-11-12, 01:04:04,VALID,1001.89,VALID,0,VALID,93.5682,VALID,0,VALID,24.2894,VALID,345,VALID,0.00742187,
2008-11-12, 01:05:04,VALID,1001.9,VALID,0,VALID,93.5606,VALID,0,VALID,24.2681,VALID,345,VALID,0,
2008-11-12, 01:06:04,VALID,1001.94,VALID,0,VALID,93.5987,VALID,0,VALID,24.2875,VALID,345,VALID,0,
2008-11-12, 01:07:04,VALID,1001.91,VALID,0,VALID,93.5987,VALID,0,VALID,24.3283,VALID,345,VALID,0,
2008-11-12, 01:08:04,VALID,1001.95,VALID,0,VALID,93.5835,VALID,0,VALID,24.307,VALID,348,VALID,0.510547,
2008-11-12, 01:09:04,VALID,1001.96,VALID,0,VALID,93.4843,VALID,0,VALID,24.3052,VALID,347,VALID,0.371484,
2008-11-12, 01:10:04,VALID,1001.96,VALID,0,VALID,93.4385,VALID,0,VALID,24.307,VALID,348,VALID,0.487891,
2008-11-12, 01:11:04,VALID,1001.97,VALID,0,VALID,93.4385,VALID,0.100563,VALID,24.2681,VALID,348,VALID,0.540234,
2008-11-12, 01:12:04,VALID,1001.97,VALID,0,VALID,93.4385,VALID,0,VALID,24.2486,VALID,351,VALID,0.617188,
2008-11-12, 01:13:04,VALID,1001.96,VALID,0,VALID,93.5072,VALID,0.100563,VALID,24.2468,VALID,356,VALID,0.523438,
2008-11-12, 01:14:04,VALID,1001.92,VALID,0,VALID,93.5148,VALID,0,VALID,24.2486,VALID,355,VALID,0.628906,
2008-11-12, 01:15:04,VALID,1001.9,VALID,0,VALID,93.5301,VALID,0,VALID,24.2291,VALID,348,VALID,0.429688,
2008-11-12, 01:16:04,VALID,1001.88,VALID,0,VALID,93.5377,VALID,0,VALID,24.2486,VALID,348,VALID,0.543359,
2008-11-12, 01:17:04,VALID,1001.86,VALID,0,VALID,93.553,VALID,0,VALID,24.2681,VALID,348,VALID,0.330078,
2008-11-12, 01:18:04,VALID,1001.81,VALID,0,VALID,93.553,VALID,0,VALID,24.2273,VALID,356,VALID,0.360938,
2008-11-12, 01:19:04,VALID,1001.82,VALID,0,VALID,93.4843,VALID,0,VALID,24.2486,VALID,356,VALID,0.328125,
2008-11-12, 01:20:04,VALID,1001.83,VALID,0,VALID,93.553,VALID,0,VALID,24.2273,VALID,356,VALID,0.0414063,
2008-11-12, 01:21:04,VALID,1001.8,VALID,0,VALID,93.5224,VALID,0,VALID,24.2486,VALID,356,VALID,0,
2008-11-12, 01:22:04,VALID,1001.78,VALID,0,VALID,93.5377,VALID,0.100563,VALID,24.2486,VALID,354,VALID,0.392188,
2008-11-12, 01:23:04,VALID,1001.8,VALID,0,VALID,93.5224,VALID,0,VALID,24.2273,VALID,353,VALID,0.471875,
2008-11-12, 01:24:04,VALID,1001.79,VALID,0,VALID,93.5453,VALID,0,VALID,24.2097,VALID,353,VALID,0.573438,
2008-11-12, 01:25:04,VALID,1001.76,VALID,0,VALID,93.5148,VALID,0,VALID,24.231,VALID,353,VALID,0.364062,
2008-11-12, 01:26:04,VALID,1001.78,VALID,0,VALID,93.5224,VALID,0,VALID,24.1902,VALID,353,VALID,0.312109,
2008-11-12, 01:27:04,VALID,1001.73,VALID,0,VALID,93.469,VALID,0,VALID,24.192,VALID,353,VALID,0.194141,
2008-11-12, 01:28:04,VALID,1001.75,VALID,0,VALID,93.4462,VALID,0,VALID,24.1123,VALID,353,VALID,0.294141,
2008-11-12, 01:29:04,VALID,1001.73,VALID,0,VALID,93.5224,VALID,0,VALID,24.0947,VALID,353,VALID,0.258984,
2008-11-12, 01:30:04,VALID,1001.72,VALID,0,VALID,93.6064,VALID,0,VALID,24.0539,VALID,353,VALID,0.149219,
2008-11-12, 01:31:04,VALID,1001.71,VALID,0,VALID,93.6598,VALID,0,VALID,24.0345,VALID,353,VALID,0,
2008-11-12, 01:32:04,VALID,1001.67,VALID,0,VALID,93.7055,VALID,0,VALID,23.9955,VALID,353,VALID,0,
2008-11-12, 01:33:04,VALID,1001.67,VALID,0,VALID,93.7818,VALID,0,VALID,23.9973,VALID,353,VALID,0,
2008-11-12, 01:34:04,VALID,1001.66,VALID,0,VALID,93.8734,VALID,0,VALID,23.9973,VALID,353,VALID,0,
2008-11-12, 01:35:04,VALID,1001.62,VALID,0,VALID,93.9115,VALID,0,VALID,23.9779,VALID,353,VALID,0,
2008-11-12, 01:36:04,VALID,1001.6,VALID,0,VALID,93.9878,VALID,0,VALID,23.9566,VALID,353,VALID,0,
2008-11-12, 01:37:04,VALID,1001.61,VALID,0,VALID,94.1099,VALID,0,VALID,23.9584,VALID,353,VALID,0,
2008-11-12, 01:38:04,VALID,1001.59,VALID,0,VALID,94.1709,VALID,0,VALID,23.9779,VALID,353,VALID,0,
2008-11-12, 01:39:04,VALID,1001.59,VALID,0,VALID,94.2167,VALID,0,VALID,23.9548,VALID,353,VALID,0,
2008-11-12, 01:40:04,VALID,1001.6,VALID,0,VALID,94.2548,VALID,0.100563,VALID,23.9761,VALID,353,VALID,0,
2008-11-12, 01:41:04,VALID,1001.6,VALID,0,VALID,94.3311,VALID,0.100563,VALID,23.9761,VALID,353,VALID,0,
2008-11-12, 01:42:04,VALID,1001.59,VALID,0,VALID,94.3464,VALID,0,VALID,23.9761,VALID,353,VALID,0,
2008-11-12, 01:43:04,VALID,1001.61,VALID,0,VALID,94.3311,VALID,0.100563,VALID,23.9566,VALID,353,VALID,0,
2008-11-12, 01:44:04,VALID,1001.6,VALID,0,VALID,94.3464,VALID,0.100563,VALID,23.9371,VALID,353,VALID,0.334766,
2008-11-12, 01:45:04,VALID,1001.59,VALID,0,VALID,94.3692,VALID,0.100563,VALID,23.9159,VALID,353,VALID,0.21875,
2008-11-12, 01:46:04,VALID,1001.57,VALID,0,VALID,94.3769,VALID,0.100563,VALID,23.8964,VALID,353,VALID,0.363281,
2008-11-12, 01:47:04,VALID,1001.58,VALID,0,VALID,94.3464,VALID,0,VALID,23.8769,VALID,353,VALID,0.527734,
2008-11-12, 01:48:04,VALID,1001.54,VALID,0,VALID,94.3464,VALID,0,VALID,23.8787,VALID,353,VALID,0.465234,
2008-11-12, 01:49:04,VALID,1001.54,VALID,0,VALID,94.3311,VALID,0.100563,VALID,23.8593,VALID,353,VALID,0.364844,
2008-11-12, 01:50:04,VALID,1001.52,VALID,0,VALID,94.3769,VALID,0.100563,VALID,23.7991,VALID,353,VALID,0.345703,
2008-11-12, 01:51:04,VALID,1001.53,VALID,0,VALID,94.3921,VALID,0,VALID,23.8416,VALID,353,VALID,0.438672,
2008-11-12, 01:52:04,VALID,1001.52,VALID,0,VALID,94.4455,VALID,0.100563,VALID,23.8009,VALID,353,VALID,0.401172,
2008-11-12, 01:53:04,VALID,1001.51,VALID,0,VALID,94.5523,VALID,0.100563,VALID,23.7796,VALID,353,VALID,0.467969,
2008-11-12, 01:54:04,VALID,1001.48,VALID,0,VALID,94.6363,VALID,0,VALID,23.7991,VALID,353,VALID,0.465234,
2008-11-12, 01:55:04,VALID,1001.46,VALID,0,VALID,94.7125,VALID,0,VALID,23.8203,VALID,353,VALID,0.502734,
2008-11-12, 01:56:04,VALID,1001.45,VALID,0,VALID,94.7507,VALID,0,VALID,23.8203,VALID,353,VALID,0.381641,
2008-11-12, 01:57:04,VALID,1001.43,VALID,0,VALID,94.6973,VALID,0,VALID,23.7991,VALID,353,VALID,0.336328,
2008-11-12, 01:58:04,VALID,1001.46,VALID,0,VALID,94.6744,VALID,0,VALID,23.7814,VALID,353,VALID,0.299219,
2008-11-12, 01:59:04,VALID,1001.42,VALID,0,VALID,94.7507,VALID,0,VALID,23.7814,VALID,353,VALID,0.305469,
2008-11-12, 02:00:04,VALID,1001.43,VALID,0,VALID,94.827,VALID,0,VALID,23.8221,VALID,353,VALID,0.279687,
2008-11-12, 02:01:04,VALID,1001.44,VALID,0,VALID,94.7812,VALID,0,VALID,23.7814,VALID,353,VALID,0.189844,
2008-11-12, 02:02:04,VALID,1001.43,VALID,0,VALID,94.8194,VALID,0.100563,VALID,23.7601,VALID,353,VALID,0.310937,
2008-11-12, 02:03:04,VALID,1001.41,VALID,0,VALID,94.8499,VALID,0.100563,VALID,23.7601,VALID,353,VALID,0.0195313,
2008-11-12, 02:04:04,VALID,1001.36,VALID,0,VALID,94.8575,VALID,0,VALID,23.7601,VALID,353,VALID,0,
2008-11-12, 02:05:04,VALID,1001.34,VALID,0,VALID,94.8346,VALID,0,VALID,23.7619,VALID,353,VALID,0,
2008-11-12, 02:06:04,VALID,1001.27,VALID,0,VALID,94.8194,VALID,0.100563,VALID,23.7619,VALID,353,VALID,0,
2008-11-12, 02:07:04,VALID,1001.27,VALID,0,VALID,94.9567,VALID,0,VALID,23.7425,VALID,353,VALID,0,
2008-11-12, 02:08:04,VALID,1001.22,VALID,0,VALID,94.9185,VALID,0,VALID,23.7619,VALID,353,VALID,0,
2008-11-12, 02:09:04,VALID,1001.22,VALID,0,VALID,94.9109,VALID,0,VALID,23.7212,VALID,353,VALID,0,
2008-11-12, 02:10:04,VALID,1001.19,VALID,0,VALID,94.9643,VALID,0,VALID,23.7425,VALID,353,VALID,0,
2008-11-12, 02:11:04,VALID,1001.18,VALID,0,VALID,95.0024,VALID,0,VALID,23.7601,VALID,353,VALID,0.271875,
2008-11-12, 02:12:04,VALID,1001.17,VALID,0,VALID,94.9262,VALID,0.100563,VALID,23.7619,VALID,353,VALID,0.359766,
2008-11-12, 02:13:04,VALID,1001.16,VALID,0,VALID,94.8956,VALID,0.100563,VALID,23.7425,VALID,353,VALID,0.286328,
2008-11-12, 02:14:04,VALID,1001.17,VALID,0,VALID,94.9033,VALID,0,VALID,23.723,VALID,353,VALID,0.189453,
2008-11-12, 02:15:04,VALID,1001.14,VALID,0,VALID,94.9719,VALID,0.100563,VALID,23.7,VALID,353,VALID,0,
2008-11-12, 02:16:04,VALID,1001.14,VALID,0,VALID,94.949,VALID,0.100563,VALID,23.7212,VALID,353,VALID,0,
2008-11-12, 02:17:04,VALID,1001.16,VALID,0,VALID,94.9643,VALID,0.100563,VALID,23.7017,VALID,353,VALID,0,
2008-11-12, 02:18:04,VALID,1001.12,VALID,0,VALID,94.9872,VALID,0,VALID,23.723,VALID,353,VALID,0,
2008-11-12, 02:19:04,VALID,1001.11,VALID,0,VALID,95.033,VALID,0.100563,VALID,23.7425,VALID,353,VALID,0.580859,
2008-11-12, 02:20:04,VALID,1001.06,VALID,0,VALID,95.1245,VALID,0.100563,VALID,23.7619,VALID,352,VALID,0.583984,
2008-11-12, 02:21:04,VALID,1001.06,VALID,0,VALID,95.1016,VALID,0,VALID,23.7407,VALID,354,VALID,0.517187,
2008-11-12, 02:22:04,VALID,1001.04,VALID,0,VALID,95.0406,VALID,0.100563,VALID,23.7619,VALID,354,VALID,0.551562,
2008-11-12, 02:23:04,VALID,1001.04,VALID,0,VALID,95.0177,VALID,0,VALID,23.7425,VALID,354,VALID,0.647266,
2008-11-12, 02:24:04,VALID,1001,VALID,0,VALID,95.0101,VALID,0,VALID,23.723,VALID,354,VALID,0.5625,
2008-11-12, 02:25:04,VALID,1000.99,VALID,0,VALID,95.0558,VALID,0,VALID,23.723,VALID,354,VALID,0.348828,
2008-11-12, 02:26:04,VALID,1000.98,VALID,0,VALID,95.1627,VALID,0,VALID,23.7425,VALID,354,VALID,0.214453,
2008-11-12, 02:27:04,VALID,1000.95,VALID,0,VALID,95.1245,VALID,0,VALID,23.7619,VALID,354,VALID,0.271484,
2008-11-12, 02:28:04,VALID,1000.95,VALID,0,VALID,95.1093,VALID,0,VALID,23.7425,VALID,354,VALID,0.150391,
2008-11-12, 02:29:04,VALID,1000.91,VALID,0,VALID,95.0864,VALID,0,VALID,23.7425,VALID,354,VALID,0.247266,
2008-11-12, 02:30:04,VALID,1000.91,VALID,0,VALID,95.1093,VALID,0,VALID,23.7619,VALID,354,VALID,0.217578,
2008-11-12, 02:31:04,VALID,1000.87,VALID,0,VALID,95.2389,VALID,0,VALID,23.7814,VALID,351,VALID,0.414063,
2008-11-12, 02:32:04,VALID,1000.85,VALID,0,VALID,95.2466,VALID,0,VALID,23.8203,VALID,349,VALID,0.180078,
2008-11-12, 02:33:04,VALID,1000.84,VALID,0,VALID,95.2237,VALID,0,VALID,23.8203,VALID,349,VALID,0.463281,
2008-11-12, 02:34:04,VALID,1000.84,VALID,0,VALID,95.2695,VALID,0,VALID,23.8398,VALID,349,VALID,0.257422,
2008-11-12, 02:35:04,VALID,1000.82,VALID,0,VALID,95.2313,VALID,0,VALID,23.8593,VALID,349,VALID,0.130469,
2008-11-12, 02:36:04,VALID,1000.81,VALID,0,VALID,95.1932,VALID,0,VALID,23.8787,VALID,349,VALID,0,
2008-11-12, 02:37:04,VALID,1000.81,VALID,0,VALID,95.0864,VALID,0,VALID,23.8593,VALID,349,VALID,0.391016,
2008-11-12, 02:38:04,VALID,1000.79,VALID,0,VALID,95.033,VALID,0,VALID,23.8593,VALID,349,VALID,0.349609,
2008-11-12, 02:39:04,VALID,1000.78,VALID,0,VALID,95.0635,VALID,0,VALID,23.8787,VALID,349,VALID,0.516797,
2008-11-12, 02:40:04,VALID,1000.78,VALID,0,VALID,94.9338,VALID,0,VALID,23.8805,VALID,349,VALID,0.427344,
2008-11-12, 02:41:04,VALID,1000.77,VALID,0,VALID,94.8956,VALID,0,VALID,23.8398,VALID,349,VALID,0.372266,
2008-11-12, 02:42:04,VALID,1000.78,VALID,0,VALID,94.9033,VALID,0,VALID,23.8203,VALID,349,VALID,0.367578,
2008-11-12, 02:43:04,VALID,1000.8,VALID,0,VALID,94.888,VALID,0,VALID,23.8398,VALID,349,VALID,0.181641,
2008-11-12, 02:44:04,VALID,1000.78,VALID,0,VALID,94.8956,VALID,0,VALID,23.8203,VALID,349,VALID,0,
2008-11-12, 02:45:04,VALID,1000.78,VALID,0,VALID,94.9414,VALID,0,VALID,23.8203,VALID,349,VALID,0,
2008-11-12, 02:46:04,VALID,1000.8,VALID,0,VALID,94.9414,VALID,0,VALID,23.8203,VALID,349,VALID,0,
2008-11-12, 02:47:04,VALID,1000.77,VALID,0,VALID,95.0406,VALID,0,VALID,23.7991,VALID,349,VALID,0,
2008-11-12, 02:48:04,VALID,1000.81,VALID,0,VALID,95.1474,VALID,0,VALID,23.8593,VALID,349,VALID,0,
2008-11-12, 02:49:04,VALID,1000.8,VALID,0,VALID,95.155,VALID,0,VALID,23.8982,VALID,349,VALID,0,
2008-11-12, 02:50:04,VALID,1000.8,VALID,0,VALID,95.0864,VALID,0,VALID,23.9177,VALID,349,VALID,0,
2008-11-12, 02:51:04,VALID,1000.77,VALID,0,VALID,95.0482,VALID,0,VALID,23.9195,VALID,349,VALID,0,
2008-11-12, 02:52:04,VALID,1000.77,VALID,0,VALID,95.0101,VALID,0,VALID,23.9177,VALID,349,VALID,0,
2008-11-12, 02:53:04,VALID,1000.79,VALID,0,VALID,94.9109,VALID,0,VALID,23.8982,VALID,349,VALID,0,
2008-11-12, 02:54:04,VALID,1000.79,VALID,0,VALID,94.8422,VALID,0,VALID,23.8787,VALID,349,VALID,0,
2008-11-12, 02:55:04,VALID,1000.77,VALID,0,VALID,94.8041,VALID,0,VALID,23.8593,VALID,349,VALID,0,
2008-11-12, 02:56:04,VALID,1000.79,VALID,0,VALID,94.8194,VALID,0,VALID,23.838,VALID,349,VALID,0,
2008-11-12, 02:57:04,VALID,1000.81,VALID,0,VALID,94.8499,VALID,0,VALID,23.8185,VALID,349,VALID,0,
2008-11-12, 02:58:04,VALID,1000.79,VALID,0,VALID,94.8956,VALID,0,VALID,23.8398,VALID,349,VALID,0,
2008-11-12, 02:59:04,VALID,1000.8,VALID,0,VALID,95.0711,VALID,0,VALID,23.8787,VALID,349,VALID,0,
2008-11-12, 03:00:04,VALID,1000.82,VALID,0,VALID,95.0787,VALID,0,VALID,23.8982,VALID,349,VALID,0,
2008-11-12, 03:01:04,VALID,1000.83,VALID,0,VALID,94.9719,VALID,0,VALID,23.8982,VALID,349,VALID,0,
2008-11-12, 03:02:04,VALID,1000.83,VALID,0,VALID,94.827,VALID,0,VALID,23.8593,VALID,349,VALID,0,
2008-11-12, 03:03:04,VALID,1000.84,VALID,0,VALID,94.8041,VALID,0,VALID,23.8398,VALID,349,VALID,0,
2008-11-12, 03:04:04,VALID,1000.83,VALID,0,VALID,94.7888,VALID,0,VALID,23.8009,VALID,349,VALID,0,
2008-11-12, 03:05:04,VALID,1000.78,VALID,0,VALID,94.7354,VALID,0,VALID,23.7796,VALID,349,VALID,0,
2008-11-12, 03:06:04,VALID,1000.81,VALID,0,VALID,94.6973,VALID,0,VALID,23.7425,VALID,349,VALID,0,
2008-11-12, 03:07:04,VALID,1000.78,VALID,0,VALID,94.6363,VALID,0,VALID,23.6823,VALID,350,VALID,0,
2008-11-12, 03:08:04,VALID,1000.79,VALID,0,VALID,94.5523,VALID,0,VALID,23.6646,VALID,352,VALID,0,
2008-11-12, 03:09:04,VALID,1000.76,VALID,0,VALID,94.5371,VALID,0,VALID,23.585,VALID,352,VALID,0,
2008-11-12, 03:10:04,VALID,1000.76,VALID,0,VALID,94.6286,VALID,0,VALID,23.5655,VALID,352,VALID,0,
2008-11-12, 03:11:04,VALID,1000.78,VALID,0,VALID,94.7965,VALID,0,VALID,23.6062,VALID,352,VALID,0,
2008-11-12, 03:12:04,VALID,1000.78,VALID,0,VALID,94.8651,VALID,0,VALID,23.6257,VALID,356,VALID,0.540234,
2008-11-12, 03:13:04,VALID,1000.76,VALID,0,VALID,94.9796,VALID,0,VALID,23.6239,VALID,358,VALID,0.421484,
2008-11-12, 03:14:04,VALID,1000.75,VALID,0,VALID,94.8804,VALID,0,VALID,23.6062,VALID,358,VALID,0.361719,
2008-11-12, 03:15:04,VALID,1000.72,VALID,0,VALID,94.9719,VALID,0,VALID,23.6062,VALID,358,VALID,0.278516,
2008-11-12, 03:16:04,VALID,1000.72,VALID,0,VALID,95.1627,VALID,0,VALID,23.6646,VALID,358,VALID,0.164844,
2008-11-12, 03:17:04,VALID,1000.72,VALID,0,VALID,95.2542,VALID,0,VALID,23.6628,VALID,358,VALID,0.226563,
2008-11-12, 03:18:04,VALID,1000.68,VALID,0,VALID,95.2389,VALID,0,VALID,23.7017,VALID,358,VALID,0.123828,
2008-11-12, 03:19:04,VALID,1000.69,VALID,0,VALID,95.2161,VALID,0,VALID,23.7212,VALID,358,VALID,0.189453,
2008-11-12, 03:20:04,VALID,1000.67,VALID,0,VALID,95.1245,VALID,0,VALID,23.723,VALID,358,VALID,0.251172,
2008-11-12, 03:21:04,VALID,1000.69,VALID,0,VALID,95.033,VALID,0,VALID,23.6841,VALID,358,VALID,0.46875,
2008-11-12, 03:22:04,VALID,1000.7,VALID,0,VALID,95.0482,VALID,0.100563,VALID,23.6841,VALID,358,VALID,0.223438,
2008-11-12, 03:23:04,VALID,1000.68,VALID,0,VALID,95.0177,VALID,0,VALID,23.6452,VALID,358,VALID,0.0121094,
2008-11-12, 03:24:04,VALID,1000.71,VALID,0,VALID,95.0482,VALID,0,VALID,23.6646,VALID,358,VALID,0,
2008-11-12, 03:25:04,VALID,1000.74,VALID,0,VALID,95.155,VALID,0,VALID,23.6646,VALID,358,VALID,0,
2008-11-12, 03:26:04,VALID,1000.74,VALID,0,VALID,95.2847,VALID,0,VALID,23.7035,VALID,358,VALID,0,
2008-11-12, 03:27:04,VALID,1000.73,VALID,0,VALID,95.3381,VALID,0.100563,VALID,23.7425,VALID,358,VALID,0,
2008-11-12, 03:28:04,VALID,1000.73,VALID,0,VALID,95.3534,VALID,0,VALID,23.7814,VALID,358,VALID,0,
2008-11-12, 03:29:04,VALID,1000.77,VALID,0,VALID,95.4297,VALID,0.100563,VALID,23.8398,VALID,358,VALID,0,
2008-11-12, 03:30:04,VALID,1000.75,VALID,0,VALID,95.4373,VALID,0.100563,VALID,23.8575,VALID,356,VALID,0.596094,
2008-11-12, 03:31:04,VALID,1000.73,VALID,0,VALID,95.3839,VALID,0,VALID,23.9177,VALID,351,VALID,0.204297,
2008-11-12, 03:32:04,VALID,1000.72,VALID,0,VALID,95.3763,VALID,0.100563,VALID,23.9159,VALID,292,VALID,0.61875,
2008-11-12, 03:33:04,VALID,1000.75,VALID,0,VALID,95.2771,VALID,0,VALID,23.9159,VALID,269,VALID,0.233203,
2008-11-12, 03:34:04,VALID,1000.72,VALID,0,VALID,95.2161,VALID,0,VALID,23.9566,VALID,269,VALID,0.0113281,
2008-11-12, 03:35:04,VALID,1000.69,VALID,0,VALID,95.1627,VALID,0.100563,VALID,23.9353,VALID,269,VALID,0,
2008-11-12, 03:36:04,VALID,1000.73,VALID,0,VALID,95.094,VALID,0.100563,VALID,23.9353,VALID,269,VALID,0,
2008-11-12, 03:37:04,VALID,1000.71,VALID,0,VALID,95.0177,VALID,0,VALID,23.9177,VALID,269,VALID,0,
2008-11-12, 03:38:04,VALID,1000.69,VALID,0,VALID,94.9719,VALID,0.100563,VALID,23.8982,VALID,269,VALID,0.115234,
2008-11-12, 03:39:04,VALID,1000.71,VALID,0,VALID,94.9643,VALID,0,VALID,23.8787,VALID,269,VALID,0.0234375,
2008-11-12, 03:40:04,VALID,1000.69,VALID,0,VALID,94.9414,VALID,0,VALID,23.8593,VALID,269,VALID,0,
2008-11-12, 03:41:04,VALID,1000.68,VALID,0,VALID,94.9719,VALID,0,VALID,23.8398,VALID,269,VALID,0,
2008-11-12, 03:42:04,VALID,1000.66,VALID,0,VALID,94.9185,VALID,0,VALID,23.8203,VALID,269,VALID,0.202734,
2008-11-12, 03:43:04,VALID,1000.64,VALID,0,VALID,94.8728,VALID,0.100563,VALID,23.7796,VALID,269,VALID,0.148438,
2008-11-12, 03:44:04,VALID,1000.63,VALID,0,VALID,94.949,VALID,0,VALID,23.8009,VALID,269,VALID,0,
2008-11-12, 03:45:04,VALID,1000.63,VALID,0,VALID,94.9109,VALID,0.100563,VALID,23.7601,VALID,269,VALID,0.0894531,